Home > Weather > Bologna > Past weeks

Flag for Italy Past Weather in Bologna, Italy — Yesterday and Last 2 Weeks

Now
90 °F

Passing clouds.


Feels Like: 92 °F
Forecast: 70 / 89 °F
Wind: 3 mph from North

Location: Bologna / Borgo Panigale

Current Time: Jul 27, 2016 at 1:42:52 PM

Latest Report: Jul 27, 2016 at 12:50 PM


Visibility: N/A

Pressure: 29.95 "Hg

Humidity: 46%

Dew Point: 66 °F

Location of BolognaLocation

Past Weather in Bologna — Graph

°F

Bologna Temperature Yesterday

Maximum temperature yesterday: 90 °F (at 1:20 PM)
Minimum temperature yesterday: 70 °F (at 3:20 AM)
Average temperature yesterday: 80 °F

High & Low Weather Summary for the Past Weeks

 TemperatureHumidityPressure
High95 °F (Jul 12, 6:20 PM)88% (Jul 24, 5:20 AM)30.12 "Hg (Jul 24, 5:20 AM)
Low57 °F (Jul 17, 3:20 AM)20% (Jul 16, 4:50 PM)29.65 "Hg (Jul 13, 6:50 PM)
Average78 °F53%29.97 "Hg
* Reported Jul 12 12:20 PM — Jul 27 12:20 PM, Bologna, Weather by CustomWeather, © 2016

Note: Actual official high and low records may vary slightly from our data, if they occured in-between our weather recording intervals... More about our weather records

Advertising

Bologna Weather History for the Previous 24 Hours

Scroll right to see more
 ConditionsComfort  
Time TempWeatherWind HumidityBarometerVisibility
12:20 PM
Wed, Jul 27
88 °FSunny.6 mph52%29.98 "Hg10 mi
11:50 AM88 °FSunny.3 mph52%29.98 "Hg10 mi
11:20 AM86 °FSunny.3 mph55%29.98 "Hg10 mi
10:50 AM84 °FSunny.3 mph58%29.98 "Hg10 mi
10:20 AM82 °FPassing clouds.6 mph62%29.98 "HgN/A
9:50 AM81 °FPassing clouds.8 mph66%29.98 "HgN/A
9:20 AM81 °FPassing clouds.9 mph62%29.98 "HgN/A
8:50 AM79 °FPassing clouds.8 mph65%29.98 "HgN/A
8:20 AM77 °FSunny.6 mph69%29.98 "Hg10 mi
7:50 AM75 °FSunny.6 mph74%29.98 "Hg10 mi
7:20 AM72 °FSunny.5 mph83%29.98 "Hg10 mi
6:50 AM73 °FPassing clouds.5 mph74%29.98 "HgN/A
6:20 AM72 °FPassing clouds.5 mph78%29.98 "HgN/A
5:50 AM72 °FClear.5 mph78%29.98 "Hg10 mi
5:20 AM72 °FClear.6 mph78%29.98 "Hg10 mi
4:50 AM72 °FClear.7 mph78%29.98 "Hg10 mi
4:20 AM73 °FClear.9 mph74%29.98 "Hg10 mi
3:50 AM73 °FClear.6 mph74%29.98 "Hg10 mi
3:20 AM73 °FClear.7 mph74%29.98 "Hg10 mi
2:50 AM73 °FClear.7 mph78%29.98 "Hg10 mi
2:20 AM73 °FClear.7 mph78%29.98 "Hg10 mi
1:50 AM75 °FClear.7 mph74%29.98 "Hg10 mi
1:20 AM75 °FClear.8 mph74%29.98 "Hg10 mi
12:50 AM75 °FClear.5 mph78%29.98 "Hg10 mi
12:20 AM75 °FClear.7 mph78%29.98 "Hg10 mi
11:50 PM
Tue, Jul 26
77 °FClear.7 mph74%29.98 "Hg10 mi
11:20 PM77 °FClear.3 mph74%29.98 "Hg10 mi
10:50 PM77 °FClear.5 mph74%29.98 "Hg10 mi
10:20 PM79 °FPassing clouds.3 mph70%29.98 "HgN/A
9:50 PM81 °FClear.2 mph66%29.98 "Hg10 mi
9:20 PM81 °FSunny.1 mph66%29.98 "Hg10 mi
8:50 PM82 °FPassing clouds.3 mph62%29.95 "HgN/A
8:20 PM84 °FSunny.2 mph58%29.95 "Hg10 mi
7:50 PM86 °FSunny.2 mph55%29.95 "Hg10 mi
7:20 PM84 °FSunny.6 mph55%29.95 "Hg10 mi
6:50 PM84 °FPassing clouds.7 mph55%29.95 "HgN/A
6:20 PM88 °FPassing clouds.2 mph46%29.92 "HgN/A
5:50 PM90 °FPassing clouds.3 mph41%29.92 "HgN/A
5:20 PM90 °FScattered clouds.1 mph41%29.95 "HgN/A
4:50 PM90 °FScattered clouds.5 mph41%29.95 "HgN/A
4:20 PM90 °FScattered clouds.5 mph41%29.95 "HgN/A
3:50 PM90 °FScattered clouds.3 mph41%29.95 "HgN/A
3:20 PM90 °FScattered clouds.3 mph41%29.95 "HgN/A
2:50 PM90 °FPassing clouds.3 mph41%29.95 "HgN/A
2:20 PM90 °FPassing clouds.7 mph41%29.95 "HgN/A
1:50 PM90 °FPassing clouds.5 mph41%29.98 "HgN/A
1:20 PM90 °FPassing clouds.3 mph38%29.98 "HgN/A
Weather by CustomWeather, © 2016

See weather overviewHow to use our weather pages